Flag for Germany Weather past 2 weeks in Biberach an der Riss, Baden-Württemberg, Germany

Now
45 °F

Quite cool.


Feels Like: 40 °F
Forecast: 35 / 59 °F
Wind: 8 mph from East

Location: Laupheim Airport

Current Time: Apr 19, 2015 at 11:42:10 PM

Latest Report: Apr 19, 2015 at 10:20 PM


Visibility: N/A

Pressure: 30.12 "Hg

Humidity: 57%

Dew point: 30 °F

Location of Biberach an der RissLocation

Historic Weather in Biberach an der Riss — Graph

°F

Biberach an der Riss temperature yesterday

Maximum temperature yesterday: 50 °F (at 4:20 PM)
Minimum temperature yesterday: 39 °F (at 5:20 AM)
Average temperature yesterday: 44 °F

Past Weeks' High & Low Weather Summary

 TemperatureHumidityPressure
High73 °F (Apr 15, 4:20 PM)100% (Apr 9, 6:20 AM)30.60 "Hg (Apr 9, 6:20 AM)
Low27 °F (Apr 7, 6:20 AM)17% (Apr 15, 5:00 PM)29.89 "Hg (Apr 17, 5:20 AM)
Average49 °F63%30.24 "Hg
* Reported Apr 5 11:20 AM — Apr 19 9:20 PM, Biberach an der Riss, Weather by CustomWeather, © 2015

Note: Actual official high and low records may vary slightly from our data, if they occured in-between our weather recording intervals... More about our weather records

Advertising

Biberach an der Riss weather history for previous 24 hours

 ConditionsComfort  
Time TempWeatherWind HumidityBarometerVisibility
9:20 PM
Sun, Apr 19
45 °FPassing clouds.8 mph57%30.12 "HgN/A
8:20 PM48 °FPassing clouds.8 mph54%30.09 "HgN/A
7:20 PM54 °FPassing clouds.10 mph41%30.07 "HgN/A
6:20 PM55 °FPassing clouds.14 mph36%30.07 "HgN/A
5:20 PM57 °FScattered clouds.15 mph33%30.04 "HgN/A
4:20 PM55 °FScattered clouds.14 mph41%30.04 "HgN/A
3:20 PM55 °FScattered clouds.16 mph41%30.07 "HgN/A
2:20 PM55 °FScattered clouds.15 mph41%30.07 "HgN/A
1:20 PM52 °FPassing clouds.16 mph38%30.07 "HgN/A
12:20 PM52 °FPassing clouds.16 mph44%30.07 "HgN/A
11:20 AM48 °FPassing clouds.20 mph50%30.09 "HgN/A
10:20 AM46 °FPassing clouds.17 mph50%30.09 "HgN/A
9:20 AM43 °FPassing clouds.13 mph61%30.09 "HgN/A
8:20 AM37 °FPassing clouds.9 mph75%30.09 "HgN/A
7:20 AM32 °FPassing clouds.8 mph87%30.09 "HgN/A
6:20 AM30 °FPassing clouds.8 mph86%30.09 "HgN/A
5:20 AM30 °FChilly.6 mph86%30.09 "HgN/A
4:20 AM32 °FChilly.5 mph80%30.12 "HgN/A
3:20 AM34 °FChilly.5 mph75%30.15 "HgN/A
2:20 AM34 °FChilly.9 mph81%30.15 "HgN/A
1:20 AM36 °FChilly.6 mph75%30.18 "HgN/A
12:20 AM37 °FChilly.6 mph70%30.18 "HgN/A
11:20 PM
Sat, Apr 18
39 °FChilly.5 mph65%30.18 "HgN/A
Weather by CustomWeather, © 2015

See weather overviewHow to use our weather pages